DateTimeUTC,F1_A11,F1_S11,BsB_S11,BsG_S11,BsR_S11,BbsB_S11,BbsG_S11,BbsR_S11,BaB_A11,BaG_A11,BaR_A11,Tu_S11,T_S11,Uu_S11,U_S11,P_S11,T1_A11
2021-07-07T09:00:00Z,00000200,20000000,,,,,,,0000.08,-000.14,-000.24,19.2,25.8,03.9,02.6,0657.4,31.2
2021-07-07T09:01:00Z,00000200,20000000,,,,,,,0000.17,-000.06,0000.26,19.2,25.8,03.9,02.6,0657.4,31.2
2021-07-07T09:02:00Z,00000200,20000000,,,,,,,0000.04,0000.33,0000.13,19.1,25.8,03.9,02.6,0657.4,31.2
2021-07-07T09:03:00Z,00000200,60000000,,,,,,,-000.03,0000.24,-000.06,19.1,25.8,03.9,02.6,0657.4,31.2
2021-07-07T09:04:00Z,00000200,40000000,0000.20,0000.10,-000.01,-000.31,-000.15,0000.31,0000.45,0000.06,0000.34,19.1,25.5,04.3,02.9,0658.2,31.1
2021-07-07T09:05:00Z,00000200,00000000,0000.35,0000.17,0000.17,-000.71,-000.09,0000.18,0000.12,0000.29,-000.02,19.1,25.5,04.4,03.0,0658.3,31.1
2021-07-07T09:06:00Z,00000200,00000000,0000.61,0000.24,0000.17,0000.39,-000.07,0000.21,-000.06,-000.24,0000.03,19.1,25.5,04.4,03.0,0658.2,31.2
2021-07-07T09:07:00Z,00000200,00000000,0000.17,-000.05,0000.32,-000.24,-000.03,0000.03,0000.27,0000.34,0000.07,19.2,25.5,04.4,03.0,0658.3,31.2
2021-07-07T09:08:00Z,00000200,00000000,0000.11,0000.12,-000.01,-000.16,0000.13,0000.07,0000.36,0000.46,0000.42,19.2,25.5,04.4,03.0,0658.3,31.2
2021-07-07T09:09:00Z,00000200,00000000,0000.49,0000.31,0000.29,-000.01,-000.21,0000.13,-000.03,-000.40,-000.23,19.3,25.5,04.4,03.0,0658.3,31.2
2021-07-07T09:10:00Z,00000200,00000000,0000.72,0000.24,0000.25,0000.50,-000.08,0000.05,-000.23,0000.41,0000.20,19.4,25.6,04.4,03.0,0658.2,31.2
2021-07-07T09:11:00Z,00000200,00000000,0000.55,-000.37,0000.32,-000.36,-000.29,0000.31,0000.08,-000.08,0000.01,19.4,25.6,04.3,02.9,0658.3,31.2
2021-07-07T09:12:00Z,00000200,00000000,0000.75,0000.09,0000.02,-000.37,-000.10,0000.06,0000.35,0000.21,0000.19,19.4,25.6,04.3,02.9,0658.3,31.2
2021-07-07T09:13:00Z,00000200,00000000,0000.46,0000.14,0000.02,-000.25,0000.29,0000.19,-000.20,-000.20,-000.27,19.4,25.6,04.3,03.0,0658.2,31.2
2021-07-07T09:14:00Z,00000200,00000000,-000.24,0000.44,0000.02,-000.02,-000.11,-000.15,0000.02,0000.20,0000.04,19.4,25.6,04.3,03.0,0658.3,31.2
2021-07-07T09:15:00Z,00000200,00000000,0000.42,0000.23,0000.39,0000.55,-000.16,-000.03,0000.37,0000.26,0000.28,19.3,25.6,04.4,03.0,0658.3,31.2
2021-07-07T09:16:00Z,00000200,00000000,0000.53,0000.12,0000.28,0000.46,0000.05,0000.15,0000.07,-000.04,0000.01,19.3,25.5,04.3,02.9,0658.2,31.2
2021-07-07T09:17:00Z,00000200,00000000,-000.08,0000.35,0000.47,-000.51,-000.28,0000.16,0000.09,0000.11,0000.18,19.2,25.5,04.3,03.0,0658.3,31.1
2021-07-07T09:18:00Z,00000200,00000000,-000.17,0000.21,0000.36,-000.48,-000.05,0000.09,0000.08,0000.07,0000.13,19.2,25.5,04.4,03.0,0658.2,31.1
2021-07-07T09:19:00Z,00000200,00000000,0000.59,0000.59,0000.18,0000.19,0000.05,0000.10,-000.06,-000.13,-000.11,19.2,25.4,04.5,03.1,0658.2,31.1
2021-07-07T09:20:00Z,00000200,00000000,0001.09,0000.57,0000.53,-000.10,0000.32,0000.02,0000.29,0000.39,0000.17,19.1,25.4,04.4,03.0,0658.2,31.1
2021-07-07T09:21:00Z,00000200,00000000,0000.68,0000.17,0000.15,0000.32,-000.20,0000.24,-000.07,-000.17,-000.16,19.1,25.4,04.5,03.1,0658.3,31.1
2021-07-07T09:22:00Z,00000200,00000000,0000.05,0000.41,0000.32,0000.02,0000.05,0000.07,0000.50,0000.28,-000.10,19.2,25.4,04.5,03.1,0658.2,31.2
2021-07-07T09:23:00Z,00000200,00000000,0000.63,0000.21,0000.24,-000.62,-000.11,0000.08,-000.11,0000.22,0000.51,19.3,25.5,04.5,03.1,0658.3,31.2
2021-07-07T09:24:00Z,00000200,00000000,-000.16,0000.23,0000.47,0000.40,0000.18,-000.17,0000.14,0000.09,-000.01,19.4,25.5,04.6,03.2,0658.3,31.2
2021-07-07T09:25:00Z,00000200,00000000,0000.11,0000.26,0000.42,-000.39,0000.20,0000.26,0000.20,0000.03,-000.14,19.4,25.6,04.5,03.1,0658.3,31.2
2021-07-07T09:26:00Z,00000200,00000000,0001.08,0000.34,0000.11,-000.14,0000.10,-000.12,0000.13,-000.14,0000.33,19.5,25.6,04.5,03.1,0658.3,31.2
2021-07-07T09:27:00Z,00000200,00000000,0000.19,0000.07,0000.17,-000.18,0000.02,0000.13,-000.20,-000.01,-000.33,19.5,25.6,04.4,03.1,0658.2,31.2
2021-07-07T09:28:00Z,00000200,00000000,0000.52,0000.34,0000.43,-000.42,0000.03,0000.10,0000.39,0000.39,0000.65,19.5,25.6,04.5,03.1,0658.3,31.2
2021-07-07T09:29:00Z,00000200,00000000,0000.71,0000.20,0000.23,0000.19,0000.03,-000.00,0000.06,0000.29,0000.02,19.5,25.6,04.5,03.1,0658.3,31.2
2021-07-07T09:30:00Z,00000200,00000000,0000.86,0000.42,0000.26,-000.50,0000.15,0000.25,0000.03,-000.05,-000.32,19.4,25.6,04.5,03.1,0658.2,31.2
2021-07-07T09:31:00Z,00000200,00000000,0000.90,0000.11,0000.20,0000.62,-000.15,-000.08,0000.27,0000.22,0000.32,19.4,25.6,04.5,03.1,0658.3,31.2
2021-07-07T09:32:00Z,00000200,00000000,0000.54,0000.06,0000.22,0000.09,-000.10,-000.30,0000.11,-000.21,0000.14,19.3,25.6,04.6,03.1,0658.2,31.2
2021-07-07T09:33:00Z,00000200,00000000,0000.32,0000.27,0000.13,0000.24,0000.15,0000.20,-000.22,0000.31,0000.29,19.3,25.5,04.6,03.2,0658.2,31.1
2021-07-07T09:34:00Z,00000200,00000000,0000.29,0000.09,0000.22,-000.08,0000.05,0000.30,0000.55,-000.03,-000.14,19.2,25.5,04.7,03.2,0658.2,31.1
2021-07-07T09:35:00Z,00000200,00000000,0000.14,0000.28,-000.15,-000.06,0000.08,0000.01,-000.07,0000.02,0000.31,19.2,25.5,04.7,03.2,0658.2,31.1
2021-07-07T09:36:00Z,00000200,00000000,0000.56,0000.40,0000.25,-000.17,-000.10,0000.22,0000.13,0000.31,0000.19,19.3,25.5,04.7,03.2,0658.2,31.1
2021-07-07T09:37:00Z,00000200,00000000,0000.31,0000.17,0000.28,0000.17,0000.14,0000.10,0000.44,0000.25,-000.24,19.3,25.5,04.8,03.3,0658.2,31.2
2021-07-07T09:38:00Z,00000200,00000000,0000.13,0000.19,0000.40,-000.33,-000.15,0000.17,-000.18,0000.18,0000.23,19.4,25.6,04.8,03.3,0658.2,31.2
2021-07-07T09:39:00Z,00000200,00000000,0000.71,0000.11,-000.01,0000.19,-000.13,0000.13,0000.39,0000.20,0000.24,19.5,25.6,04.7,03.2,0658.2,31.2
2021-07-07T09:40:00Z,00000200,00000000,0000.47,0000.26,0000.46,-000.69,-000.13,0000.34,0000.04,0000.14,0000.08,19.6,25.7,04.7,03.3,0658.2,31.2
2021-07-07T09:41:00Z,00000200,00000000,0000.83,0000.14,0000.04,0000.17,-000.16,-000.26,0000.13,0000.19,-000.02,19.7,25.7,04.7,03.3,0658.2,31.2
2021-07-07T09:42:00Z,00000200,00000000,0000.85,0000.33,0000.28,-000.23,-000.00,-000.08,-000.05,-000.15,0000.08,19.7,25.7,04.7,03.3,0658.1,31.2
2021-07-07T09:43:00Z,00000200,00000000,0000.07,0000.06,0000.51,-000.13,-000.26,0000.43,0000.01,0000.20,-000.01,19.7,25.8,04.8,03.4,0658.2,31.2
2021-07-07T09:44:00Z,00000200,00000000,0000.56,0000.04,0000.35,0000.17,-000.12,-000.07,0000.02,-000.03,-000.05,19.7,25.7,04.7,03.3,0658.2,31.2
2021-07-07T09:45:00Z,00000200,00000000,0000.49,0000.21,0000.26,-000.04,-000.33,0000.04,0000.21,-000.04,0000.04,19.6,25.7,04.8,03.3,0658.2,31.2
2021-07-07T09:46:00Z,00000200,00000000,0001.74,0000.30,0000.12,-000.64,0000.04,-000.18,0000.07,-000.06,0000.08,19.5,25.7,04.9,03.3,0658.2,31.2
2021-07-07T09:47:00Z,00000200,00000000,0000.59,0000.16,0000.22,0000.02,0000.20,0000.23,0000.27,0000.40,0000.05,19.5,25.7,04.9,03.4,0658.3,31.2
2021-07-07T09:48:00Z,00000200,00000000,0000.78,0000.15,0000.27,0000.32,0000.10,0000.05,-000.25,-000.08,0000.04,19.4,25.7,05.0,03.4,0658.2,31.2
2021-07-07T09:49:00Z,00000200,00000000,0000.98,0000.04,0000.25,-000.11,-000.02,0000.04,0000.60,0000.40,0000.58,19.4,25.6,05.1,03.5,0658.2,31.2
2021-07-07T09:50:00Z,00000200,00000000,0000.15,0000.26,-000.06,-000.11,-000.18,0000.04,-000.13,-000.36,-000.27,19.4,25.6,05.1,03.5,0658.1,31.2
2021-07-07T09:51:00Z,00000200,00000000,0000.74,0000.08,0000.57,0000.24,-000.01,0000.23,0000.33,0000.52,0000.13,19.4,25.6,05.0,03.5,0658.1,31.2
2021-07-07T09:52:00Z,00000200,00000000,0001.03,0000.05,0000.42,0000.15,-000.01,-000.02,-000.09,0000.17,0000.38,19.5,25.6,05.1,03.5,0658.1,31.2
2021-07-07T09:53:00Z,00000200,00000000,0001.05,0000.35,0000.42,-000.12,0000.27,0000.02,0000.46,0000.43,-000.05,19.6,25.7,05.2,03.6,0658.2,31.2
2021-07-07T09:54:00Z,00000200,00000000,0000.15,0000.19,0000.03,0000.03,-000.02,0000.44,-000.31,-000.44,0000.03,19.7,25.7,05.2,03.6,0658.1,31.2
2021-07-07T09:55:00Z,00000200,00000000,0000.46,0000.25,0000.37,-000.13,0000.10,0000.36,0000.31,0000.41,0000.24,19.7,25.8,05.2,03.6,0658.2,31.2
2021-07-07T09:56:00Z,00000200,00000000,0000.95,-000.08,0000.37,-000.25,-000.07,0000.24,-000.10,-000.31,-000.30,19.8,25.8,05.1,03.6,0658.1,31.2
2021-07-07T09:57:00Z,00000200,40000000,,,,,,,-000.05,0000.04,0000.06,19.8,25.8,05.3,03.7,0658.2,31.2
2021-07-07T09:58:00Z,00000200,60000000,,,,,,,0000.06,0000.02,-000.15,19.5,25.9,04.9,03.3,0657.1,31.2
2021-07-07T09:59:00Z,00000200,20000000,,,,,,,0000.05,0000.11,-000.34,19.5,26.0,04.9,03.3,0657.1,31.2
